Time,TemperatureF,DewpointF,PressureIn,WindDirection,WindDirectionDegrees,WindSpeedMPH,WindSpeedGustMPH,Humidity,HourlyPrecipIn,Conditions,Clouds,dailyrainin,SoftwareType,DateUTC
2013-06-19 00:57:00,66.6,54.2,29.27,SE,135,0.0,0.0,64,0.00,,,0.00,WUHU21623XXSP,2013-06-19 05:57:00,
2013-06-19 01:57:00,64.9,53.4,29.28,East,90,0.0,0.0,66,0.00,,,0.00,WUHU21623XXSP,2013-06-19 06:57:00,
2013-06-19 02:57:00,63.1,52.9,29.28,ENE,68,0.0,0.0,69,0.00,,,0.00,WUHU21623XXSP,2013-06-19 07:57:00,
2013-06-19 03:57:00,61.5,51.4,29.29,NE,45,0.0,0.0,69,0.00,,,0.00,WUHU21623XXSP,2013-06-19 08:57:00,
2013-06-19 04:57:00,60.1,50.0,29.29,ESE,113,0.0,0.0,69,0.00,,,0.00,WUHU21623XXSP,2013-06-19 09:57:00,
2013-06-19 05:44:00,59.5,49.4,29.31,ESE,112,0.0,0.0,69,0.00,,,0.00,WUHU21623XXSP,2013-06-19 10:44:00,
2013-06-19 05:49:00,59.5,49.4,29.31,ESE,112,0.0,0.0,69,0.00,,,0.00,WUHU21623XXSP,2013-06-19 10:49:00,
2013-06-19 05:54:00,59.2,49.4,29.32,ESE,112,0.0,0.0,69,0.00,,,0.00,WUHU21623XXSP,2013-06-19 10:54:00,
2013-06-19 05:59:00,59.2,49.0,29.32,ESE,112,0.0,0.0,69,0.00,,,0.00,WUHU21623XXSP,2013-06-19 10:59:00,
2013-06-19 06:04:00,59.0,48.9,29.32,East,90,0.0,0.0,69,0.00,,,0.00,WUHU21623XXSP,2013-06-19 11:04:00,
2013-06-19 06:09:00,59.0,48.9,29.32,ESE,112,0.0,0.0,69,0.00,,,0.00,WUHU21623XXSP,2013-06-19 11:09:00,
2013-06-19 06:14:00,59.2,49.0,29.32,ESE,112,0.0,0.0,69,0.00,,,0.00,WUHU21623XXSP,2013-06-19 11:14:00,
2013-06-19 06:19:00,59.0,48.7,29.32,ESE,112,0.0,0.0,69,0.00,,,0.00,WUHU21623XXSP,2013-06-19 11:19:00,
2013-06-19 06:24:00,59.2,49.0,29.31,ENE,67,0.7,0.7,69,0.00,,,0.00,WUHU21623XXSP,2013-06-19 11:24:00,
2013-06-19 06:29:00,59.4,49.2,29.31,ENE,67,0.0,0.7,69,0.00,,,0.00,WUHU21623XXSP,2013-06-19 11:29:00,
2013-06-19 06:34:00,59.4,49.2,29.31,ENE,67,1.3,1.3,69,0.00,,,0.00,WUHU21623XXSP,2013-06-19 11:34:00,
2013-06-19 06:39:00,59.7,49.6,29.31,NNE,22,0.7,1.3,69,0.00,,,0.00,WUHU21623XXSP,2013-06-19 11:39:00,
2013-06-19 06:44:00,59.9,50.2,29.32,NE,45,0.0,0.7,70,0.00,,,0.00,WUHU21623XXSP,2013-06-19 11:44:00,
2013-06-19 06:49:00,60.1,49.9,29.32,NE,45,0.0,0.7,69,0.00,,,0.00,WUHU21623XXSP,2013-06-19 11:49:00,
2013-06-19 06:54:00,60.4,50.3,29.33,ENE,67,1.1,1.1,69,0.00,,,0.00,WUHU21623XXSP,2013-06-19 11:54:00,
2013-06-19 06:59:00,60.6,50.5,29.33,ENE,67,0.0,1.1,69,0.00,,,0.00,WUHU21623XXSP,2013-06-19 11:59:00,
2013-06-19 07:04:00,61.0,50.8,29.33,ENE,67,0.0,0.0,69,0.00,,,0.00,WUHU21623XXSP,2013-06-19 12:04:00,
2013-06-19 07:09:00,61.3,51.2,29.33,ESE,112,0.0,0.0,69,0.00,,,0.00,WUHU21623XXSP,2013-06-19 12:09:00,
2013-06-19 07:14:00,61.7,51.3,29.33,East,90,0.0,0.0,69,0.00,,,0.00,WUHU21623XXSP,2013-06-19 12:14:00,
2013-06-19 07:19:00,61.7,51.1,29.33,SE,135,0.2,0.2,68,0.00,,,0.00,WUHU21623XXSP,2013-06-19 12:19:00,
2013-06-19 07:24:00,62.2,51.4,29.33,ENE,67,0.0,0.9,68,0.00,,,0.00,WUHU21623XXSP,2013-06-19 12:24:00,
2013-06-19 07:29:00,62.4,51.5,29.33,ENE,67,0.0,0.9,68,0.00,,,0.00,WUHU21623XXSP,2013-06-19 12:29:00,
2013-06-19 07:34:00,63.1,52.4,29.33,ENE,67,0.0,0.0,68,0.00,,,0.00,WUHU21623XXSP,2013-06-19 12:34:00,
2013-06-19 07:39:00,63.7,52.5,29.33,SSE,157,0.0,0.0,67,0.00,,,0.00,WUHU21623XXSP,2013-06-19 12:39:00,
2013-06-19 07:44:00,64.2,52.6,29.33,NE,45,3.4,3.4,66,0.00,,,0.00,WUHU21623XXSP,2013-06-19 12:44:00,
2013-06-19 07:49:00,64.8,53.1,29.33,NE,45,2.2,3.4,66,0.00,,,0.00,WUHU21623XXSP,2013-06-19 12:49:00,
2013-06-19 07:54:00,65.3,53.6,29.34,NE,45,0.0,2.2,66,0.00,,,0.00,WUHU21623XXSP,2013-06-19 12:54:00,
2013-06-19 07:59:00,65.5,53.4,29.33,ESE,112,0.4,0.4,65,0.00,,,0.00,WUHU21623XXSP,2013-06-19 12:59:00,
2013-06-19 08:04:00,65.8,53.7,29.33,ESE,112,0.0,0.4,65,0.00,,,0.00,WUHU21623XXSP,2013-06-19 13:04:00,
2013-06-19 08:09:00,66.4,54.2,29.34,SE,135,0.0,0.0,65,0.00,,,0.00,WUHU21623XXSP,2013-06-19 13:09:00,
2013-06-19 08:14:00,66.7,54.6,29.34,SE,135,0.7,0.7,65,0.00,,,0.00,WUHU21623XXSP,2013-06-19 13:14:00,
2013-06-19 08:19:00,67.3,55.1,29.34,ENE,67,0.0,0.7,65,0.00,,,0.00,WUHU21623XXSP,2013-06-19 13:19:00,
2013-06-19 08:24:00,67.8,55.1,29.34,SE,135,0.7,0.7,64,0.00,,,0.00,WUHU21623XXSP,2013-06-19 13:24:00,
2013-06-19 08:29:00,68.2,55.5,29.34,SSE,157,0.0,0.7,64,0.00,,,0.00,WUHU21623XXSP,2013-06-19 13:29:00,
2013-06-19 08:34:00,68.7,55.8,29.34,ESE,112,0.0,0.7,64,0.00,,,0.00,WUHU21623XXSP,2013-06-19 13:34:00,
2013-06-19 08:39:00,68.9,55.8,29.34,NE,45,0.0,0.0,63,0.00,,,0.00,WUHU21623XXSP,2013-06-19 13:39:00,
2013-06-19 08:44:00,69.1,55.9,29.34,SE,135,4.3,4.3,63,0.00,,,0.00,WUHU21623XXSP,2013-06-19 13:44:00,
2013-06-19 08:49:00,69.6,56.5,29.33,SE,135,0.0,4.3,63,0.00,,,0.00,WUHU21623XXSP,2013-06-19 13:49:00,
2013-06-19 08:54:00,70.2,56.6,29.34,SE,135,0.0,0.0,62,0.00,,,0.00,WUHU21623XXSP,2013-06-19 13:54:00,
2013-06-19 08:59:00,70.3,56.7,29.33,ENE,67,1.8,1.8,62,0.00,,,0.00,WUHU21623XXSP,2013-06-19 13:59:00,
2013-06-19 09:04:00,70.5,56.5,29.33,SSE,157,5.6,5.6,61,0.00,,,0.00,WUHU21623XXSP,2013-06-19 14:04:00,
2013-06-19 09:09:00,70.9,56.8,29.33,SE,135,0.9,5.6,61,0.00,,,0.00,WUHU21623XXSP,2013-06-19 14:09:00,
2013-06-19 09:14:00,71.2,57.1,29.33,SE,135,4.5,5.6,61,0.00,,,0.00,WUHU21623XXSP,2013-06-19 14:14:00,
2013-06-19 09:19:00,71.6,57.5,29.33,NE,45,2.9,4.5,61,0.00,,,0.00,WUHU21623XXSP,2013-06-19 14:19:00,
2013-06-19 09:24:00,72.0,57.6,29.33,ENE,67,0.7,2.9,61,0.00,,,0.00,WUHU21623XXSP,2013-06-19 14:24:00,
2013-06-19 09:29:00,72.1,57.9,29.33,NE,45,0.0,1.6,61,0.00,,,0.00,WUHU21623XXSP,2013-06-19 14:29:00,
2013-06-19 09:34:00,72.3,58.1,29.33,SSE,157,0.4,0.7,61,0.00,,,0.00,WUHU21623XXSP,2013-06-19 14:34:00,
2013-06-19 09:39:00,72.9,58.6,29.33,East,90,0.0,0.4,61,0.00,,,0.00,WUHU21623XXSP,2013-06-19 14:39:00,
2013-06-19 09:44:00,73.2,58.5,29.33,SE,135,0.0,0.2,60,0.00,,,0.00,WUHU21623XXSP,2013-06-19 14:44:00,
2013-06-19 09:49:00,73.6,58.3,29.33,SSE,157,0.0,2.9,59,0.00,,,0.00,WUHU21623XXSP,2013-06-19 14:49:00,
2013-06-19 09:54:00,74.3,59.5,29.33,SSE,157,1.8,4.7,60,0.00,,,0.00,WUHU21623XXSP,2013-06-19 14:54:00,
2013-06-19 09:59:00,74.8,59.6,29.33,SE,135,1.1,4.7,59,0.00,,,0.00,WUHU21623XXSP,2013-06-19 14:59:00,
2013-06-19 10:04:00,75.4,60.1,29.33,SE,135,1.8,4.0,59,0.00,,,0.00,WUHU21623XXSP,2013-06-19 15:04:00,
2013-06-19 10:09:00,75.9,60.1,29.33,SE,135,4.7,4.7,58,0.00,,,0.00,WUHU21623XXSP,2013-06-19 15:09:00,
2013-06-19 10:14:00,76.3,60.4,29.33,SSE,157,0.0,4.7,58,0.00,,,0.00,WUHU21623XXSP,2013-06-19 15:14:00,
2013-06-19 10:19:00,76.8,60.4,29.32,SE,135,1.1,3.1,57,0.00,,,0.00,WUHU21623XXSP,2013-06-19 15:19:00,
2013-06-19 10:24:00,77.2,60.5,29.32,NE,45,0.0,4.9,57,0.00,,,0.00,WUHU21623XXSP,2013-06-19 15:24:00,
2013-06-19 10:29:00,77.4,60.4,29.32,SSE,157,3.4,4.9,56,0.00,,,0.00,WUHU21623XXSP,2013-06-19 15:29:00,
2013-06-19 10:34:00,77.5,60.5,29.32,SSE,157,2.0,3.4,56,0.00,,,0.00,WUHU21623XXSP,2013-06-19 15:34:00,
2013-06-19 10:39:00,78.1,61.6,29.32,ESE,112,0.7,2.0,57,0.00,,,0.00,WUHU21623XXSP,2013-06-19 15:39:00,
2013-06-19 10:44:00,78.4,61.4,29.33,ESE,112,0.0,0.7,56,0.00,,,0.00,WUHU21623XXSP,2013-06-19 15:44:00,
2013-06-19 10:49:00,78.6,61.6,29.32,SE,135,0.0,0.7,56,0.00,,,0.00,WUHU21623XXSP,2013-06-19 15:49:00,
2013-06-19 10:54:00,79.3,61.7,29.33,SSE,157,2.7,2.7,55,0.00,,,0.00,WUHU21623XXSP,2013-06-19 15:54:00,
2013-06-19 10:59:00,79.9,60.7,29.33,SE,135,0.0,5.4,52,0.00,,,0.00,WUHU21623XXSP,2013-06-19 15:59:00,
2013-06-19 11:04:00,80.2,61.0,29.33,SW,225,0.0,5.4,52,0.00,,,0.00,WUHU21623XXSP,2013-06-19 16:04:00,
2013-06-19 11:09:00,80.4,61.1,29.33,SE,135,2.9,2.9,52,0.00,,,0.00,WUHU21623XXSP,2013-06-19 16:09:00,
2013-06-19 11:14:00,80.4,61.1,29.33,SE,135,2.0,2.9,52,0.00,,,0.00,WUHU21623XXSP,2013-06-19 16:14:00,
2013-06-19 11:19:00,80.8,60.9,29.33,SE,135,0.0,4.0,51,0.00,,,0.00,WUHU21623XXSP,2013-06-19 16:19:00,
2013-06-19 11:24:00,81.1,61.3,29.33,SSE,157,2.0,4.0,51,0.00,,,0.00,WUHU21623XXSP,2013-06-19 16:24:00,
2013-06-19 11:29:00,81.3,61.4,29.33,ESE,112,1.3,2.0,51,0.00,,,0.00,WUHU21623XXSP,2013-06-19 16:29:00,
2013-06-19 11:34:00,81.5,61.1,29.33,NE,45,0.0,1.3,50,0.00,,,0.00,WUHU21623XXSP,2013-06-19 16:34:00,
2013-06-19 11:39:00,81.7,61.8,29.33,ESE,112,0.0,0.7,51,0.00,,,0.00,WUHU21623XXSP,2013-06-19 16:39:00,
2013-06-19 11:44:00,81.9,61.4,29.33,SSE,157,2.0,2.0,50,0.00,,,0.00,WUHU21623XXSP,2013-06-19 16:44:00,
2013-06-19 11:49:00,82.2,61.1,29.33,SSW,202,0.7,2.0,49,0.00,,,0.00,WUHU21623XXSP,2013-06-19 16:49:00,
2013-06-19 11:54:00,82.8,61.6,29.32,ENE,67,1.3,1.3,49,0.00,,,0.00,WUHU21623XXSP,2013-06-19 16:54:00,
2013-06-19 11:59:00,82.9,61.8,29.32,SE,135,0.0,2.0,49,0.00,,,0.00,WUHU21623XXSP,2013-06-19 16:59:00,
2013-06-19 12:04:00,83.3,62.2,29.32,SE,135,0.0,2.0,49,0.00,,,0.00,WUHU21623XXSP,2013-06-19 17:04:00,
2013-06-19 12:09:00,84.0,62.2,29.32,SE,135,0.0,2.5,48,0.00,,,0.00,WUHU21623XXSP,2013-06-19 17:09:00,
2013-06-19 12:14:00,84.4,62.0,29.32,SSW,202,0.0,2.5,47,0.00,,,0.00,WUHU21623XXSP,2013-06-19 17:14:00,
2013-06-19 12:19:00,84.7,62.3,29.31,SE,135,0.0,0.7,47,0.00,,,0.00,WUHU21623XXSP,2013-06-19 17:19:00,
2013-06-19 12:23:00,85.1,62.6,29.31,SSE,157,4.3,4.3,47,0.00,,,0.00,WUHU21623XXSP,2013-06-19 17:23:00,
2013-06-19 12:28:00,85.3,62.8,29.31,SE,135,0.0,4.3,47,0.00,,,0.00,WUHU21623XXSP,2013-06-19 17:28:00,
2013-06-19 12:33:00,85.6,62.5,29.31,SE,135,0.0,0.0,45,0.00,,,0.00,WUHU21623XXSP,2013-06-19 17:33:00,
2013-06-19 12:38:00,85.3,62.3,29.31,North,0,0.0,0.0,46,0.00,,,0.00,WUHU21623XXSP,2013-06-19 17:38:00,
2013-06-19 12:43:00,85.6,63.1,29.31,SW,225,0.0,0.0,46,0.00,,,0.00,WUHU21623XXSP,2013-06-19 17:43:00,
2013-06-19 12:48:00,85.6,62.5,29.30,SW,225,0.0,0.0,46,0.00,,,0.00,WUHU21623XXSP,2013-06-19 17:48:00,
2013-06-19 12:53:00,86.0,62.2,29.30,SE,135,3.4,3.4,45,0.00,,,0.00,WUHU21623XXSP,2013-06-19 17:53:00,
2013-06-19 12:58:00,86.2,62.9,29.30,SSE,157,0.9,3.4,46,0.00,,,0.00,WUHU21623XXSP,2013-06-19 17:58:00,
2013-06-19 13:03:00,86.5,63.9,29.30,NNE,22,1.6,3.4,47,0.00,,,0.00,WUHU21623XXSP,2013-06-19 18:03:00,
2013-06-19 13:08:00,86.7,62.8,29.30,ENE,67,0.0,1.6,45,0.00,,,0.00,WUHU21623XXSP,2013-06-19 18:08:00,
2013-06-19 13:13:00,86.7,62.8,29.30,ENE,67,0.0,0.0,45,0.00,,,0.00,WUHU21623XXSP,2013-06-19 18:13:00,
2013-06-19 13:18:00,86.9,63.0,29.29,SSW,202,0.0,0.0,45,0.00,,,0.00,WUHU21623XXSP,2013-06-19 18:18:00,
2013-06-19 13:23:00,86.7,62.8,29.29,NNE,22,1.6,4.5,45,0.00,,,0.00,WUHU21623XXSP,2013-06-19 18:23:00,
2013-06-19 13:28:00,86.9,63.0,29.29,SSE,157,4.3,4.5,45,0.00,,,0.00,WUHU21623XXSP,2013-06-19 18:28:00,
2013-06-19 13:33:00,87.1,62.5,29.29,SE,135,0.0,4.3,44,0.00,,,0.00,WUHU21623XXSP,2013-06-19 18:33:00,
2013-06-19 13:38:00,87.3,62.7,29.29,South,180,1.3,1.6,44,0.00,,,0.00,WUHU21623XXSP,2013-06-19 18:38:00,
2013-06-19 13:43:00,87.4,62.8,29.30,SSE,157,0.0,1.6,44,0.00,,,0.00,WUHU21623XXSP,2013-06-19 18:43:00,
2013-06-19 13:48:00,87.6,62.3,29.29,SE,135,0.0,0.0,43,0.00,,,0.00,WUHU21623XXSP,2013-06-19 18:48:00,
2013-06-19 13:53:00,87.8,62.5,29.30,NNE,22,0.4,0.4,43,0.00,,,0.00,WUHU21623XXSP,2013-06-19 18:53:00,
2013-06-19 13:58:00,87.6,62.3,29.29,NNE,22,4.3,4.3,42,0.00,,,0.00,WUHU21623XXSP,2013-06-19 18:58:00,
2013-06-19 14:03:00,87.3,61.4,29.29,NE,45,4.9,4.9,42,0.00,,,0.00,WUHU21623XXSP,2013-06-19 19:03:00,
2013-06-19 14:08:00,87.3,61.9,29.29,ENE,67,0.0,4.9,43,0.00,,,0.00,WUHU21623XXSP,2013-06-19 19:08:00,
2013-06-19 14:13:00,87.1,61.9,29.29,East,90,0.0,0.0,43,0.00,,,0.00,WUHU21623XXSP,2013-06-19 19:13:00,
2013-06-19 14:18:00,86.9,61.7,29.29,ENE,67,0.0,0.0,43,0.00,,,0.00,WUHU21623XXSP,2013-06-19 19:18:00,
2013-06-19 14:23:00,86.2,61.4,29.29,ENE,67,0.0,0.0,43,0.00,,,0.00,WUHU21623XXSP,2013-06-19 19:23:00,
2013-06-19 14:28:00,85.8,61.4,29.29,ENE,67,0.0,0.0,44,0.00,,,0.00,WUHU21623XXSP,2013-06-19 19:28:00,
2013-06-19 14:33:00,85.6,61.2,29.29,ESE,112,0.7,0.7,44,0.00,,,0.00,WUHU21623XXSP,2013-06-19 19:33:00,
2013-06-19 14:38:00,85.6,61.8,29.29,ESE,112,0.0,0.7,45,0.00,,,0.00,WUHU21623XXSP,2013-06-19 19:38:00,
2013-06-19 14:43:00,85.6,61.2,29.29,NE,45,0.0,0.0,44,0.00,,,0.00,WUHU21623XXSP,2013-06-19 19:43:00,
2013-06-19 14:48:00,86.2,62.3,29.29,SE,135,0.0,2.0,45,0.00,,,0.00,WUHU21623XXSP,2013-06-19 19:48:00,
2013-06-19 14:53:00,87.4,62.8,29.28,South,180,0.0,2.0,44,0.00,,,0.00,WUHU21623XXSP,2013-06-19 19:53:00,
2013-06-19 14:58:00,88.0,62.7,29.28,East,90,0.0,0.0,43,0.00,,,0.00,WUHU21623XXSP,2013-06-19 19:58:00,
2013-06-19 15:03:00,88.0,62.0,29.28,ESE,112,0.0,0.0,42,0.00,,,0.00,WUHU21623XXSP,2013-06-19 20:03:00,
2013-06-19 15:08:00,88.5,63.1,29.28,SSE,157,0.0,2.7,43,0.00,,,0.00,WUHU21623XXSP,2013-06-19 20:08:00,
2013-06-19 15:13:00,88.7,62.6,29.28,East,90,0.0,2.7,42,0.00,,,0.00,WUHU21623XXSP,2013-06-19 20:13:00,
2013-06-19 15:18:00,88.5,62.5,29.28,NNE,22,2.2,2.2,42,0.00,,,0.00,WUHU21623XXSP,2013-06-19 20:18:00,
2013-06-19 15:23:00,88.3,62.3,29.28,NNE,22,5.4,5.4,41,0.00,,,0.00,WUHU21623XXSP,2013-06-19 20:23:00,
2013-06-19 15:28:00,88.0,62.2,29.28,SE,135,0.0,5.4,41,0.00,,,0.00,WUHU21623XXSP,2013-06-19 20:28:00,
2013-06-19 15:33:00,87.4,61.3,29.28,NNE,22,3.4,3.4,41,0.00,,,0.00,WUHU21623XXSP,2013-06-19 20:33:00,
2013-06-19 15:38:00,86.7,61.2,29.28,NNE,22,3.4,3.4,42,0.00,,,0.00,WUHU21623XXSP,2013-06-19 20:38:00,
2013-06-19 15:43:00,86.4,60.6,29.28,North,0,0.0,3.4,42,0.00,,,0.00,WUHU21623XXSP,2013-06-19 20:43:00,
2013-06-19 15:48:00,86.7,61.4,29.28,North,0,0.0,0.0,42,0.00,,,0.00,WUHU21623XXSP,2013-06-19 20:48:00,
2013-06-19 15:53:00,86.5,60.7,29.28,NNE,22,0.0,2.2,42,0.00,,,0.00,WUHU21623XXSP,2013-06-19 20:53:00,
2013-06-19 15:58:00,86.2,60.4,29.28,NNE,22,0.0,2.2,42,0.00,,,0.00,WUHU21623XXSP,2013-06-19 20:58:00,
2013-06-19 16:03:00,86.2,60.4,29.27,NNE,22,0.0,2.2,42,0.00,,,0.00,WUHU21623XXSP,2013-06-19 21:03:00,
2013-06-19 16:08:00,86.5,60.7,29.27,NNE,22,0.0,2.2,42,0.00,,,0.00,WUHU21623XXSP,2013-06-19 21:08:00,
2013-06-19 16:13:00,86.7,60.9,29.27,NNE,22,0.0,1.6,42,0.00,,,0.00,WUHU21623XXSP,2013-06-19 21:13:00,
2013-06-19 16:18:00,86.9,61.1,29.27,SE,135,0.0,2.7,42,0.00,,,0.00,WUHU21623XXSP,2013-06-19 21:18:00,
2013-06-19 16:23:00,87.1,60.6,29.27,ENE,67,1.3,2.7,41,0.00,,,0.00,WUHU21623XXSP,2013-06-19 21:23:00,
2013-06-19 16:28:00,86.4,60.0,29.27,ENE,67,0.0,1.3,41,0.00,,,0.00,WUHU21623XXSP,2013-06-19 21:28:00,
2013-06-19 16:33:00,85.6,60.1,29.27,ENE,67,0.0,0.0,42,0.00,,,0.00,WUHU21623XXSP,2013-06-19 21:33:00,
2013-06-19 16:38:00,84.9,59.9,29.27,SE,135,0.0,0.0,43,0.00,,,0.00,WUHU21623XXSP,2013-06-19 21:38:00,
2013-06-19 16:43:00,85.1,60.1,29.27,SSW,202,0.0,0.0,43,0.00,,,0.00,WUHU21623XXSP,2013-06-19 21:43:00,
2013-06-19 16:48:00,85.6,60.6,29.27,SSW,202,0.0,0.0,43,0.00,,,0.00,WUHU21623XXSP,2013-06-19 21:48:00,
2013-06-19 16:53:00,85.6,59.9,29.27,SSW,202,0.0,0.0,42,0.00,,,0.00,WUHU21623XXSP,2013-06-19 21:53:00,
2013-06-19 16:58:00,85.6,59.9,29.27,WSW,247,0.2,0.4,42,0.00,,,0.00,WUHU21623XXSP,2013-06-19 21:58:00,
2013-06-19 17:03:00,86.0,60.3,29.26,WSW,247,0.0,0.4,42,0.00,,,0.00,WUHU21623XXSP,2013-06-19 22:03:00,
2013-06-19 17:08:00,86.4,60.6,29.26,West,270,0.0,0.0,42,0.00,,,0.00,WUHU21623XXSP,2013-06-19 22:08:00,
2013-06-19 17:13:00,86.4,60.6,29.27,North,0,0.0,0.0,42,0.00,,,0.00,WUHU21623XXSP,2013-06-19 22:13:00,
2013-06-19 17:18:00,85.8,60.1,29.26,North,0,0.0,0.0,42,0.00,,,0.00,WUHU21623XXSP,2013-06-19 22:18:00,
2013-06-19 17:23:00,85.5,59.8,29.27,SSE,157,0.0,0.0,42,0.00,,,0.00,WUHU21623XXSP,2013-06-19 22:23:00,
2013-06-19 17:28:00,85.3,60.2,29.26,SSE,157,0.0,3.6,43,0.00,,,0.00,WUHU21623XXSP,2013-06-19 22:28:00,
2013-06-19 17:33:00,85.1,59.5,29.27,SSE,157,2.2,3.6,42,0.00,,,0.00,WUHU21623XXSP,2013-06-19 22:33:00,
2013-06-19 17:38:00,85.3,59.6,29.27,SSE,157,0.0,2.2,42,0.00,,,0.00,WUHU21623XXSP,2013-06-19 22:38:00,
2013-06-19 17:43:00,85.6,59.9,29.27,SSE,157,0.0,0.7,42,0.00,,,0.00,WUHU21623XXSP,2013-06-19 22:43:00,
2013-06-19 17:48:00,85.8,60.1,29.27,SSE,157,0.0,0.0,42,0.00,,,0.00,WUHU21623XXSP,2013-06-19 22:48:00,
2013-06-19 17:53:00,86.2,60.4,29.26,SSE,157,0.0,0.0,42,0.00,,,0.00,WUHU21623XXSP,2013-06-19 22:53:00,
2013-06-19 17:58:00,86.2,60.4,29.27,SSE,157,0.0,0.0,42,0.00,,,0.00,WUHU21623XXSP,2013-06-19 22:58:00,
2013-06-19 18:03:00,86.2,60.4,29.26,SSE,157,0.0,0.0,42,0.00,,,0.00,WUHU21623XXSP,2013-06-19 23:03:00,
2013-06-19 18:08:00,85.8,60.1,29.27,SSE,157,0.0,0.0,42,0.00,,,0.00,WUHU21623XXSP,2013-06-19 23:08:00,
2013-06-19 18:13:00,85.5,59.8,29.27,SSE,157,0.0,0.0,42,0.00,,,0.00,WUHU21623XXSP,2013-06-19 23:13:00,
2013-06-19 18:18:00,85.3,59.6,29.27,SSE,157,0.0,0.0,42,0.00,,,0.00,WUHU21623XXSP,2013-06-19 23:18:00,
2013-06-19 18:23:00,85.1,60.1,29.27,SSE,157,0.0,0.0,43,0.00,,,0.00,WUHU21623XXSP,2013-06-19 23:23:00,
2013-06-19 18:28:00,84.7,59.8,29.27,SSE,157,0.0,0.0,43,0.00,,,0.00,WUHU21623XXSP,2013-06-19 23:28:00,
2013-06-19 18:33:00,84.6,59.6,29.27,SSE,157,0.0,0.0,43,0.00,,,0.00,WUHU21623XXSP,2013-06-19 23:33:00,
2013-06-19 18:38:00,84.0,59.7,29.27,SSE,157,0.0,0.0,44,0.00,,,0.00,WUHU21623XXSP,2013-06-19 23:38:00,
2013-06-19 18:43:00,83.8,59.6,29.27,SSE,157,0.0,0.0,44,0.00,,,0.00,WUHU21623XXSP,2013-06-19 23:43:00,
2013-06-19 18:48:00,83.5,59.2,29.28,SSE,157,0.0,0.0,44,0.00,,,0.00,WUHU21623XXSP,2013-06-19 23:48:00,
2013-06-19 18:53:00,83.3,59.7,29.27,SSE,157,0.0,0.0,45,0.00,,,0.00,WUHU21623XXSP,2013-06-19 23:53:00,
2013-06-19 18:58:00,83.1,59.5,29.27,SSE,157,0.0,0.0,45,0.00,,,0.00,WUHU21623XXSP,2013-06-19 23:58:00,
2013-06-19 19:03:00,83.1,59.5,29.27,SSE,157,0.7,0.7,45,0.00,,,0.00,WUHU21623XXSP,2013-06-20 00:03:00,
2013-06-19 19:08:00,82.8,59.2,29.27,SSE,157,0.0,0.7,45,0.00,,,0.00,WUHU21623XXSP,2013-06-20 00:08:00,
2013-06-19 19:13:00,82.6,59.2,29.27,SSE,157,0.0,0.0,45,0.00,,,0.00,WUHU21623XXSP,2013-06-20 00:13:00,
2013-06-19 19:18:00,82.6,59.6,29.27,SSE,157,0.0,0.0,46,0.00,,,0.00,WUHU21623XXSP,2013-06-20 00:18:00,
2013-06-19 19:23:00,82.2,59.3,29.27,SSE,157,0.0,0.0,46,0.00,,,0.00,WUHU21623XXSP,2013-06-20 00:23:00,
2013-06-19 19:28:00,82.2,59.3,29.27,SSE,157,0.0,0.0,46,0.00,,,0.00,WUHU21623XXSP,2013-06-20 00:28:00,
2013-06-19 19:33:00,82.2,59.3,29.27,SSE,157,0.0,0.0,46,0.00,,,0.00,WUHU21623XXSP,2013-06-20 00:33:00,
2013-06-19 19:38:00,82.2,59.3,29.26,SSE,157,0.0,0.0,46,0.00,,,0.00,WUHU21623XXSP,2013-06-20 00:38:00,
2013-06-19 19:43:00,82.0,59.1,29.26,SSE,157,0.0,0.0,46,0.00,,,0.00,WUHU21623XXSP,2013-06-20 00:43:00,
2013-06-19 19:48:00,81.7,59.6,29.26,SSE,157,0.0,0.0,47,0.00,,,0.00,WUHU21623XXSP,2013-06-20 00:48:00,
2013-06-19 19:53:00,81.3,59.1,29.26,SSE,157,0.0,0.0,47,0.00,,,0.00,WUHU21623XXSP,2013-06-20 00:53:00,
2013-06-19 19:58:00,81.1,59.1,29.26,SSE,157,0.0,0.0,47,0.00,,,0.00,WUHU21623XXSP,2013-06-20 00:58:00,
2013-06-19 20:03:00,81.0,58.7,29.26,SSE,157,0.0,0.0,47,0.00,,,0.00,WUHU21623XXSP,2013-06-20 01:03:00,
2013-06-19 20:08:00,80.8,58.6,29.26,SSE,157,0.0,0.0,48,0.00,,,0.00,WUHU21623XXSP,2013-06-20 01:08:00,
2013-06-19 20:13:00,80.4,58.9,29.26,SSE,157,0.0,0.0,48,0.00,,,0.00,WUHU21623XXSP,2013-06-20 01:13:00,
2013-06-19 20:18:00,80.2,58.7,29.26,SSE,157,0.0,0.0,48,0.00,,,0.00,WUHU21623XXSP,2013-06-20 01:18:00,
2013-06-19 20:23:00,79.9,58.4,29.26,SSE,157,0.0,0.0,48,0.00,,,0.00,WUHU21623XXSP,2013-06-20 01:23:00,
2013-06-19 20:28:00,79.5,58.2,29.26,SSE,157,0.0,0.0,48,0.00,,,0.00,WUHU21623XXSP,2013-06-20 01:28:00,
2013-06-19 20:33:00,79.3,58.1,29.26,SSE,157,0.0,0.0,48,0.00,,,0.00,WUHU21623XXSP,2013-06-20 01:33:00,
2013-06-19 20:38:00,79.0,58.2,29.26,SSE,157,0.0,0.0,49,0.00,,,0.00,WUHU21623XXSP,2013-06-20 01:38:00,
2013-06-19 20:43:00,78.6,58.0,29.26,SSE,157,0.0,0.0,49,0.00,,,0.00,WUHU21623XXSP,2013-06-20 01:43:00,
2013-06-19 20:48:00,78.6,57.9,29.26,SSE,157,0.0,0.0,49,0.00,,,0.00,WUHU21623XXSP,2013-06-20 01:48:00,
2013-06-19 20:53:00,78.4,58.3,29.26,SSE,157,0.0,0.0,50,0.00,,,0.00,WUHU21623XXSP,2013-06-20 01:53:00,
2013-06-19 20:58:00,78.3,58.2,29.26,SSE,157,0.0,0.0,50,0.00,,,0.00,WUHU21623XXSP,2013-06-20 01:58:00,
2013-06-19 21:03:00,78.1,58.0,29.26,SSE,157,0.0,0.0,50,0.00,,,0.00,WUHU21623XXSP,2013-06-20 02:03:00,
2013-06-19 21:08:00,77.9,57.8,29.27,SSE,157,0.0,0.0,50,0.00,,,0.00,WUHU21623XXSP,2013-06-20 02:08:00,
2013-06-19 21:13:00,77.7,58.2,29.27,SSE,157,0.0,0.0,51,0.00,,,0.00,WUHU21623XXSP,2013-06-20 02:13:00,
2013-06-19 21:18:00,77.5,58.0,29.27,SSE,157,0.0,0.0,51,0.00,,,0.00,WUHU21623XXSP,2013-06-20 02:18:00,
2013-06-19 21:23:00,77.4,57.8,29.27,SSE,157,0.0,0.0,51,0.00,,,0.00,WUHU21623XXSP,2013-06-20 02:23:00,
2013-06-19 21:28:00,77.2,57.7,29.28,SSE,157,0.7,0.7,51,0.00,,,0.00,WUHU21623XXSP,2013-06-20 02:28:00,
2013-06-19 21:33:00,77.2,57.7,29.28,SSE,157,0.0,0.7,51,0.00,,,0.00,WUHU21623XXSP,2013-06-20 02:33:00,
2013-06-19 21:38:00,76.8,57.9,29.28,SSE,157,0.0,0.0,52,0.00,,,0.00,WUHU21623XXSP,2013-06-20 02:38:00,
2013-06-19 21:43:00,76.8,57.9,29.28,SSE,157,0.0,0.0,52,0.00,,,0.00,WUHU21623XXSP,2013-06-20 02:43:00,
2013-06-19 21:48:00,76.6,57.7,29.28,SSE,157,0.0,0.0,52,0.00,,,0.00,WUHU21623XXSP,2013-06-20 02:48:00,
2013-06-19 21:53:00,76.5,57.5,29.28,SSE,157,0.0,0.0,52,0.00,,,0.00,WUHU21623XXSP,2013-06-20 02:53:00,
2013-06-19 21:58:00,76.3,57.9,29.28,SSE,157,0.0,0.0,53,0.00,,,0.00,WUHU21623XXSP,2013-06-20 02:58:00,
2013-06-19 22:03:00,76.1,57.7,29.29,SSE,157,0.9,0.9,53,0.00,,,0.00,WUHU21623XXSP,2013-06-20 03:03:00,
2013-06-19 22:08:00,75.9,57.6,29.29,SSE,157,0.0,0.9,53,0.00,,,0.00,WUHU21623XXSP,2013-06-20 03:08:00,
2013-06-19 22:13:00,75.7,57.9,29.29,SSE,157,0.0,0.7,54,0.00,,,0.00,WUHU21623XXSP,2013-06-20 03:13:00,
2013-06-19 22:18:00,75.7,57.4,29.29,SSE,157,0.0,0.7,53,0.00,,,0.00,WUHU21623XXSP,2013-06-20 03:18:00,
2013-06-19 22:23:00,75.4,57.6,29.29,SSE,157,0.0,0.0,54,0.00,,,0.00,WUHU21623XXSP,2013-06-20 03:23:00,
2013-06-19 22:28:00,75.4,57.6,29.29,SSE,157,0.0,0.0,54,0.00,,,0.00,WUHU21623XXSP,2013-06-20 03:28:00,
2013-06-19 22:33:00,75.0,57.2,29.29,SSE,157,0.7,0.7,54,0.00,,,0.00,WUHU21623XXSP,2013-06-20 03:33:00,
2013-06-19 22:57:00,74.5,57.4,29.29,SSE,158,0.0,0.0,55,0.00,,,0.00,WUHU21623XXSP,2013-06-20 03:57:00,
2013-06-19 23:57:00,72.7,57.2,29.29,SSE,158,0.0,0.0,58,0.00,,,0.00,WUHU21623XXSP,2013-06-20 04:57:00,